Overview Statistics Trail Chart Weather Telemetry Raw packets
 

This is the latest recevied weather packets stored in our database for station/object KB4MOX. If no packets are shown the sender has not sent any weather packets the latest 10 day(s).

<< 26 27 28 29 30 31 32 >>
Time Temp. Humidity Pressure Rain* Wind** Luminosity Snow
1788440862 26.67° C 81% 1019 hPa 0 mm - 69 W/m² -
1788440557 26.11° C 82% 1019 hPa 0 mm - 72 W/m² -
1788440255 26.11° C 83% 1019.2 hPa 0 mm - 59 W/m² -
1788439951 25.56° C 84% 1019.1 hPa 0 mm - 52 W/m² -
1788439650 25.56° C 84% 1019.1 hPa 0 mm - 51 W/m² -
1788439346 25° C 85% 1019 hPa 0 mm - 53 W/m² -
1788439044 25° C 86% 1019.2 hPa 0 mm - 53 W/m² -
1788438743 24.44° C 87% 1019 hPa 0 mm - 49 W/m² -
1788438443 24.44° C 88% 1019 hPa 0 mm - 43 W/m² -
1788438138 23.89° C 89% 1019.1 hPa 0 mm - 43 W/m² -
1788437836 23.89° C 90% 1019.1 hPa 0 mm - 46 W/m² -
1788437532 23.89° C 90% 1018.9 hPa 0 mm - 51 W/m² -
1788437232 23.33° C 91% 1018.9 hPa 0 mm - 45 W/m² -
1788436926 23.33° C 92% 1018.8 hPa 0 mm - 37 W/m² -
1788436625 23.33° C 92% 1018.7 hPa 0 mm - 34 W/m² -
1788436320 22.78° C 92% 1018.7 hPa 0 mm - 25 W/m² -
1788436015 22.78° C 92% 1018.7 hPa 0 mm - 23 W/m² -
1788435710 22.78° C 92% 1018.6 hPa 0 mm - 19 W/m² -
1788435406 22.78° C 92% 1018.6 hPa 0 mm - 16 W/m² -
1788435102 22.78° C 92% 1018.5 hPa 0 mm - 13 W/m² -
1788434798 22.78° C 92% 1018.4 hPa 0 mm - 10 W/m² -
1788434497 22.78° C 92% 1018.5 hPa 0 mm - 8 W/m² -
1788434196 22.78° C 92% 1018.3 hPa 0 mm - 5 W/m² -
1788433892 22.78° C 92% 1018.1 hPa 0 mm - 4 W/m² -
1788433589 22.78° C 91% 1018.1 hPa 0 mm - 2 W/m² -

* Rain latest hour (hover to see other rain measurements)
** Current wind speed in m/s (hover to see current wind gust speed)